Temp
70 68 65 64 64 66 67 68 69 69 70 70 70 71 71 70 68 67 67 68 67 67 67 67 66 64 65 65 66 67 65 65 58 60 63 64 62 62 64 66 67 65 68
72 70 68 67 68 67 67 69 70 69 71 70 71 70 70 68 67 67 66 67 67 66 65 64 66 67 62 62 63 62 61 59 56 52 56 58 59 63 64 63 64 66 66
72 71 69 68 67 67 67 68 69 69 69 70 70 68 67 67 67 67 67 66 66 64 65 65 64 63 62 63 60 59 59 59 58 53 53 57 58 60 60 61 62 63 68
72 70 68 67 67 67 67 67 67 69 69 69 68 67 67 67 67 66 65 64 64 65 65 64 64 63 61 59 58 58 57 55 54 53 53 53 56 58 58 56 57 62 62
69 68 66 66 67 67 66 67 67 68 67 67 67 67 66 67 63 59 61 62 62 63 64 65 65 61 57 56 56 54 53 52 52 51 50 52 53 54 54 56 54 56 57
67 66 66 66 66 65 65 65 65 65 65 65 64 63 61 63 46 46 49 58 60 62 62 63 62 60 59 54 52 52 51 49 49 49 49 49 51 53 54 53 52 51 48
65 65 65 64 63 63 64 64 62 61 61 60 60 59 59 54 44 43 44 56 60 61 61 58 58 61 55 53 54 52 55 52 51 53 50 51 50 52 52 51 50 50 50
63 63 63 64 62 63 62 59 57 58 56 56 57 57 59 48 43 42 42 58 60 61 59 55 52 53 51 49 52 57 59 61 60 58 54 52 52 52 49 51 50 49 52
61 61 61 62 61 60 58 57 57 58 57 58 57 57 55 51 42 41 44 56 59 56 56 53 53 51 43 42 51 54 55 57 56 51 48 46 45 45 46 49 48 47 48
56 58 60 61 60 57 57 57 58 58 57 58 57 55 49 50 41 40 42 52 51 50 53 55 44 46 42 41 50 51 51 51 50 51 53 53 51 51 50 52 51 47 47
59 60 59 59 57 56 56 56 54 52 51 48 49 52 51 47 47 40 40 45 45 48 50 51 55 42 41 40 41 50 46 44 48 47 46 49 49 53 52 54 54 50 48
59 58 58 57 59 57 54 53 51 49 46 44 46 51 52 50 42 40 39 40 42 47 46 50 51 40 40 40 46 40 40 45 51 44 42 44 44 45 47 48 52 54 52
57 57 57 57 57 57 56 55 56 55 56 56 55 53 51 51 47 41 40 40 41 43 44 44 42 41 41 45 42 42 44 46 45 39 38 40 42 44 44 48 49 55 55
56 56 57 56 56 57 59 57 53 51 52 53 51 51 51 50 45 41 41 42 41 43 43 45 45 45 43 45 50 54 55 49 39 36 38 39 40 40 38 45 43 45 50
56 56 57 58 57 56 52 51 52 45 43 47 46 49 46 45 41 37 38 43 42 42 44 51 50 50 51 48 50 54 54 51 43 36 36 36 37 36 37 40 40 43 44
56 57 56 58 58 57 56 52 36 38 36 36 35 38 45 36 35 36 36 37 37 38 49 50 49 51 51 51 51 51 51 48 46 36 36 34 33 34 35 37 41 41 44
54 55 57 55 56 54 54 53 52 41 37 37 37 36 36 34 36 36 37 37 38 42 50 50 49 49 50 50 50 50 48 48 47 38 34 33 33 33 34 35 37 39 41
53 42 55 54 54 54 53 52 52 50 49 50 40 39 37 36 36 36 38 43 48 47 47 48 48 49 50 49 49 49 47 47 46 41 34 33 31 32 32 34 36 38 40
55 54 54 53 52 50 52 51 51 49 48 49 50 45 42 40 39 39 40 47 46 46 47 47 48 49 50 50 50 49 47 44 43 40 32 31 31 31 31 34 36 36 38
49 41 45 53 52 51 51 50 49 49 49 49 47 44 46 47 47 47 46 46 47 47 47 47 49 49 50 49 49 48 47 45 43 36 31 30 30 30 32 34 36 37 42
51 49 39 52 51 51 50 49 49 49 48 48 48 43 32 46 47 48 47 48 48 48 48 48 50 50 50 49 48 48 47 45 40 34 31 29 29 31 34 35 38 42 46
52 51 51 50 49 48 49 50 50 49 49 49 49 47 35 50 49 48 48 48 49 50 50 49 49 49 49 48 47 46 45 43 38 34 32 30 30 32 32 35 37 41 47
51 51 50 50 49 44 50 50 49 49 49 49 49 49 49 48 48 47 47 47 48 49 50 49 49 49 49 48 48 46 44 38 34 36 33 32 32 32 32 33 36 39 42
51 50 49 49 48 50 50 50 50 43 48 49 48 48 48 48 48 47 47 47 48 48 49 48 48 48 47 48 47 45 44 37 36 38 36 39 35 33 33 33 36 38 41
49 49 49 48 48 49 50 49 49 48 48 48 47 48 48 48 47 47 47 47 47 47 47 47 47 47 47 47 44 41 36 31 35 32 38 43 41 37 33 33 35 36 39
47 46 46 46 46 46 46 47 47 47 47 47 47 47 47 47 47 46 47 46 46 47 46 47 47 46 46 47 41 34 32 31 34 31 34 45 43 42 34 33 34 35 37
MSLP
1009.41 1009.93 1010.38 1011.31 1012.23 1013.60 1013.94 1014.28 1014.64 1014.76 1015.04 1015.63 1015.47 1015.22 1015.21 1015.14 1015.13 1014.99 1014.69 1014.34 1014.28 1014.08 1013.81 1013.51 1013.32 1013.33 1013.07 1012.87 1012.56 1012.09 1011.58 1011.22 1010.80 1010.51 1010.36 1009.87 1009.40 1008.82 1008.27 1007.79 1007.29 1006.64 1005.97
1009.79 1010.50 1011.31 1011.81 1012.87 1013.78 1014.26 1014.65 1014.59 1014.86 1015.51 1015.69 1015.46 1015.22 1015.23 1015.18 1015.13 1014.94 1014.55 1014.17 1013.81 1013.49 1013.49 1013.37 1012.95 1012.77 1012.85 1012.69 1012.35 1012.04 1011.88 1011.78 1011.29 1010.53 1010.24 1009.70 1009.10 1008.43 1007.81 1007.26 1006.67 1005.90 1005.31
1010.18 1011.12 1011.72 1012.67 1013.62 1014.26 1014.68 1014.78 1014.96 1015.30 1015.64 1015.55 1015.26 1015.18 1014.94 1015.23 1014.98 1014.73 1014.30 1013.98 1013.73 1013.63 1013.33 1013.23 1013.07 1012.94 1012.63 1012.40 1012.43 1012.15 1011.88 1011.50 1011.17 1010.70 1009.83 1009.37 1008.52 1007.98 1007.28 1006.76 1006.00 1005.24 1004.33
1010.94 1011.67 1012.42 1013.29 1014.01 1014.43 1014.77 1014.99 1015.36 1015.53 1015.37 1015.22 1015.23 1015.18 1015.11 1015.22 1014.88 1014.85 1014.67 1014.30 1013.85 1013.44 1013.34 1013.32 1013.00 1012.75 1012.63 1012.59 1012.43 1012.07 1011.82 1011.55 1011.10 1010.47 1009.55 1008.77 1008.09 1007.31 1006.87 1006.18 1005.23 1004.55 1003.88
1011.74 1012.31 1013.15 1014.08 1014.62 1014.96 1015.15 1015.32 1015.34 1015.19 1015.30 1015.23 1015.07 1015.10 1015.14 1015.20 1015.73 1015.99 1015.44 1014.60 1014.02 1013.53 1013.29 1012.94 1012.54 1012.75 1012.95 1013.04 1012.80 1012.44 1012.19 1011.57 1010.82 1010.07 1009.21 1008.44 1007.55 1006.71 1006.18 1005.58 1004.98 1004.38 1003.97
1012.73 1013.29 1013.73 1014.32 1014.70 1014.94 1015.11 1015.31 1015.29 1015.14 1015.39 1015.35 1015.43 1015.32 1015.58 1015.78 1016.89 1016.82 1016.44 1015.15 1014.21 1013.51 1013.02 1012.80 1012.68 1012.61 1012.48 1012.81 1012.77 1012.60 1012.35 1011.44 1010.44 1009.71 1008.77 1007.96 1006.97 1006.40 1005.80 1005.22 1004.69 1004.25 1003.62
1013.60 1014.08 1014.45 1014.82 1015.15 1015.32 1015.44 1015.47 1015.57 1015.85 1016.19 1015.81 1015.57 1015.80 1016.08 1016.63 1017.22 1017.16 1016.74 1015.38 1014.27 1013.59 1013.24 1013.24 1013.19 1012.81 1012.96 1012.86 1012.12 1011.58 1010.37 1009.90 1009.51 1009.08 1008.29 1007.53 1006.74 1006.04 1005.54 1004.77 1004.38 1003.97 1003.35
1014.46 1014.60 1014.90 1015.04 1015.37 1015.64 1015.70 1016.09 1016.23 1016.12 1016.22 1016.08 1016.11 1016.50 1016.57 1017.42 1017.38 1017.25 1016.43 1014.92 1014.11 1013.55 1013.58 1013.88 1013.80 1013.40 1013.25 1013.16 1012.21 1010.67 1009.71 1009.07 1008.63 1008.65 1008.31 1007.58 1006.81 1005.98 1005.59 1004.68 1004.14 1003.71 1003.02
1015.07 1015.26 1015.66 1015.83 1015.95 1016.13 1016.34 1016.51 1016.53 1016.42 1016.41 1016.37 1016.58 1016.71 1016.75 1017.03 1017.49 1017.40 1016.72 1015.18 1014.13 1014.12 1014.04 1014.04 1013.80 1013.76 1013.84 1013.33 1011.99 1010.63 1009.74 1008.92 1008.58 1008.25 1007.83 1007.03 1006.18 1005.27 1004.68 1004.20 1003.55 1003.20 1002.31
1015.88 1016.15 1016.30 1016.25 1016.51 1016.78 1016.89 1016.80 1016.90 1016.80 1016.66 1016.73 1016.68 1016.73 1017.12 1017.44 1017.80 1017.80 1017.41 1016.03 1015.18 1014.81 1014.25 1013.63 1014.05 1014.04 1013.95 1013.48 1012.32 1011.21 1010.27 1009.54 1008.83 1007.65 1006.63 1005.90 1005.46 1004.61 1003.84 1003.30 1002.95 1002.69 1002.15
1016.41 1016.40 1016.58 1016.76 1017.11 1017.28 1017.36 1017.46 1017.61 1017.67 1017.71 1017.81 1017.53 1017.19 1017.53 1017.98 1018.01 1018.22 1017.82 1017.04 1016.34 1015.22 1014.55 1013.95 1013.43 1014.12 1013.90 1013.32 1012.66 1011.97 1011.64 1010.79 1009.10 1008.21 1007.46 1006.38 1005.60 1004.61 1004.01 1003.09 1002.41 1002.14 1001.81
1016.83 1016.90 1017.19 1017.39 1017.22 1017.70 1018.11 1018.37 1018.50 1018.39 1018.40 1018.39 1017.99 1017.49 1017.54 1017.91 1018.34 1018.37 1018.08 1017.62 1016.94 1015.71 1015.07 1014.38 1014.07 1014.30 1013.66 1012.95 1012.36 1012.21 1011.56 1010.36 1009.16 1008.75 1008.03 1007.06 1006.23 1005.30 1004.33 1003.45 1002.26 1001.29 1001.13
1017.27 1017.30 1017.58 1017.83 1018.02 1018.22 1018.18 1018.12 1017.73 1017.86 1017.73 1017.51 1017.32 1017.37 1017.72 1017.79 1018.26 1018.52 1018.22 1017.62 1017.02 1016.26 1015.72 1015.18 1014.68 1014.21 1013.53 1012.86 1012.44 1011.71 1011.17 1010.37 1009.94 1009.34 1008.57 1007.66 1006.94 1005.88 1004.73 1003.18 1002.13 1000.74 1000.18
1017.57 1017.62 1017.84 1018.04 1017.97 1018.19 1018.00 1018.26 1019.05 1019.31 1018.93 1018.53 1018.40 1018.03 1018.06 1018.21 1018.73 1019.02 1018.50 1017.68 1017.20 1016.34 1015.72 1015.01 1014.50 1013.94 1013.53 1012.88 1011.53 1010.65 1010.32 1010.68 1011.03 1010.29 1009.13 1008.18 1007.15 1006.06 1004.97 1003.69 1002.66 1001.42 999.94
1017.81 1018.00 1017.90 1017.98 1018.27 1018.32 1019.51 1019.93 1019.69 1021.22 1021.17 1020.53 1020.44 1019.52 1019.47 1019.46 1020.04 1020.13 1019.38 1018.26 1017.58 1016.64 1015.65 1014.38 1013.88 1013.40 1012.79 1012.45 1011.63 1010.79 1010.46 1010.43 1010.47 1010.50 1009.69 1008.62 1007.47 1006.33 1005.03 1004.01 1002.86 1001.56 1000.43
1017.87 1018.16 1018.47 1018.23 1018.34 1018.60 1018.88 1019.66 1021.14 1021.34 1021.78 1022.41 1022.57 1021.95 1020.81 1021.28 1020.91 1020.21 1019.40 1018.70 1017.66 1016.40 1015.11 1014.49 1013.89 1013.31 1012.83 1012.40 1011.74 1011.13 1010.72 1010.44 1010.44 1010.75 1010.02 1009.16 1007.88 1006.59 1005.24 1003.98 1002.92 1001.68 1000.37
1018.85 1018.96 1018.89 1018.78 1019.00 1019.24 1019.47 1019.65 1019.69 1021.62 1021.80 1021.87 1022.07 1022.11 1021.87 1021.57 1020.96 1020.07 1019.10 1018.13 1017.51 1016.14 1015.38 1014.87 1014.40 1014.05 1013.58 1013.11 1012.47 1011.86 1011.42 1011.14 1010.88 1010.89 1010.31 1009.32 1008.20 1006.90 1005.66 1004.20 1002.95 1001.81 1000.29
1019.85 1020.41 1019.49 1019.61 1019.74 1019.81 1020.07 1020.34 1020.52 1020.67 1020.55 1020.71 1021.32 1021.60 1021.51 1021.19 1020.68 1020.03 1019.04 1017.83 1017.16 1016.80 1016.38 1015.80 1015.31 1014.82 1014.18 1013.64 1013.02 1012.47 1012.19 1011.66 1011.10 1010.63 1010.32 1009.55 1008.35 1007.18 1005.71 1004.42 1003.12 1001.88 1000.37
1019.86 1020.19 1020.33 1020.59 1021.03 1021.05 1020.81 1020.82 1020.88 1020.95 1020.91 1020.80 1020.83 1021.13 1021.29 1020.75 1020.30 1019.79 1019.19 1018.33 1017.84 1017.44 1017.13 1016.57 1016.13 1015.49 1014.78 1014.30 1013.69 1013.20 1012.80 1012.20 1011.63 1011.04 1010.62 1009.69 1008.42 1007.39 1005.95 1004.44 1002.90 1001.60 1000.40
1021.47 1022.03 1021.63 1021.25 1021.37 1021.37 1021.25 1021.11 1021.16 1021.19 1021.11 1021.11 1021.27 1021.79 1021.40 1020.33 1019.92 1019.56 1019.45 1019.04 1018.44 1018.04 1017.78 1017.21 1016.68 1016.14 1015.53 1015.05 1014.31 1013.71 1013.02 1012.26 1011.90 1011.65 1011.06 1009.99 1008.60 1007.65 1006.07 1004.40 1002.83 1001.18 999.71
1021.84 1022.33 1022.63 1021.98 1021.87 1021.80 1021.71 1021.67 1021.67 1021.59 1021.59 1021.50 1021.43 1022.32 1022.13 1020.96 1020.16 1019.74 1019.49 1019.24 1018.90 1018.50 1018.18 1017.75 1017.18 1016.69 1016.12 1015.58 1015.00 1014.30 1013.59 1012.99 1013.00 1012.58 1011.64 1010.30 1009.00 1007.61 1006.24 1004.71 1002.72 1000.61 999.01
1022.28 1022.39 1022.51 1022.54 1022.63 1022.59 1022.41 1022.19 1022.06 1021.99 1021.86 1021.64 1021.50 1021.55 1021.70 1020.77 1020.49 1020.27 1020.05 1019.80 1019.41 1018.98 1018.63 1018.26 1017.73 1017.21 1016.77 1016.27 1015.71 1015.09 1014.43 1013.97 1013.88 1013.19 1012.10 1010.87 1009.35 1008.05 1006.44 1005.02 1003.00 1001.16 999.12
1022.80 1022.82 1022.90 1023.03 1023.07 1023.15 1022.63 1022.54 1022.54 1022.43 1022.15 1021.96 1021.81 1021.59 1021.43 1021.24 1020.96 1020.75 1020.56 1020.41 1019.96 1019.48 1019.06 1018.69 1018.23 1017.76 1017.46 1016.97 1016.47 1016.11 1015.43 1015.46 1015.30 1013.92 1012.80 1011.20 1009.62 1008.57 1007.26 1005.67 1003.91 1002.16 1000.65
1023.34 1023.33 1023.34 1023.47 1023.57 1023.12 1023.01 1022.83 1022.68 1023.04 1022.72 1022.28 1022.23 1022.08 1021.89 1021.70 1021.43 1021.22 1021.00 1020.75 1020.37 1019.97 1019.64 1019.18 1018.77 1018.44 1018.01 1017.41 1017.17 1017.05 1016.59 1016.81 1015.74 1014.27 1013.18 1011.19 1009.98 1009.07 1007.74 1006.33 1004.99 1003.44 1001.75
1023.98 1023.88 1023.86 1023.82 1023.82 1023.61 1023.34 1023.34 1023.21 1023.07 1022.93 1022.81 1022.69 1022.53 1022.40 1022.16 1021.89 1021.67 1021.39 1021.06 1020.70 1020.27 1019.99 1019.59 1019.22 1018.89 1018.41 1017.83 1018.02 1017.92 1017.63 1017.20 1016.10 1015.11 1013.33 1011.22 1010.27 1009.33 1008.73 1007.46 1005.97 1004.46 1003.04
1024.74 1024.82 1024.78 1024.75 1024.63 1024.52 1024.32 1024.03 1023.81 1023.73 1023.45 1023.28 1023.13 1023.03 1022.84 1022.56 1022.39 1022.11 1021.80 1021.45 1021.06 1020.57 1020.28 1019.82 1019.48 1019.17 1018.65 1018.02 1018.62 1018.53 1017.79 1017.11 1016.13 1014.95 1013.76 1011.32 1010.54 1009.64 1009.29 1008.24 1006.98 1005.58 1004.22
Wind_Speed
15 15 16 14 12 9 7 7 7 6 5 4 3 2 1 2 4 5 5 5 6 6 7 8 9 8 8 9 9 10 10 10 12 9 12 15 16 16 15 14 16 13 13
16 16 15 14 11 7 7 6 6 5 3 3 2 0 3 4 5 6 6 6 7 8 9 10 11 9 11 9 8 10 11 10 11 13 11 11 15 18 18 18 14 13 12
15 14 14 12 9 8 6 5 5 5 4 2 2 4 5 6 6 6 7 8 9 8 10 11 12 12 11 9 11 10 10 9 10 10 11 11 12 12 14 15 16 13 14
14 13 12 9 7 6 6 5 4 2 1 3 4 5 5 6 6 7 8 9 10 10 11 12 12 11 11 13 11 12 10 10 11 10 10 11 11 11 10 11 12 10 10
12 12 11 8 7 6 5 4 2 2 3 5 5 6 6 7 8 10 11 11 12 12 12 12 10 10 13 11 8 11 13 12 12 11 11 10 11 9 9 9 10 10 10
10 9 8 6 5 4 4 3 3 4 5 6 5 5 5 6 11 13 13 12 13 12 12 11 11 12 9 12 9 15 16 14 14 10 11 11 16 11 9 9 9 8 7
9 8 8 6 6 5 4 4 5 4 4 4 4 5 5 6 13 12 14 12 12 11 11 10 10 9 11 12 17 19 17 12 17 13 13 13 15 14 14 12 10 9 9
8 8 7 7 6 5 5 7 5 5 5 5 4 5 7 9 13 15 20 12 10 9 9 9 10 9 11 16 17 16 16 15 13 11 13 15 16 15 14 13 13 11 9
8 8 7 6 6 6 6 5 5 4 3 3 3 6 7 9 15 17 18 12 9 10 9 7 7 9 14 17 16 15 17 15 14 15 15 15 18 20 18 8 7 7 7
8 7 6 7 7 7 7 7 6 6 6 6 6 6 8 9 15 17 17 9 9 8 9 7 14 13 14 14 13 13 15 17 18 19 18 16 15 14 13 8 6 7 6
7 8 7 7 7 7 7 9 8 7 7 8 8 7 7 8 11 16 18 10 8 8 6 6 7 17 16 11 12 12 14 17 16 13 13 13 14 13 11 10 7 6 6
8 8 8 8 7 7 8 7 7 6 6 5 4 3 6 7 13 15 17 15 14 8 8 8 10 16 17 11 12 10 14 13 11 12 12 13 13 12 12 12 16 8 8
8 9 9 8 7 7 7 7 6 6 6 6 6 6 6 7 9 15 15 15 15 9 8 11 11 11 13 8 14 6 11 11 13 12 12 13 12 13 16 13 13 14 11
8 8 7 7 6 6 6 7 9 10 9 9 9 8 8 8 10 11 10 8 14 10 11 6 8 8 9 12 10 8 10 11 11 11 12 12 11 12 11 11 11 10 9
6 6 5 6 6 7 9 9 8 10 10 10 10 9 9 9 11 15 13 10 10 11 14 6 7 8 9 9 10 12 11 12 12 12 12 13 12 12 12 11 10 10 9
6 6 6 5 5 6 5 9 11 14 14 12 12 12 7 12 16 17 16 14 15 17 6 8 9 10 12 12 12 13 13 15 14 12 12 12 13 13 13 12 10 9 9
7 6 5 6 6 6 6 6 6 9 11 12 9 11 12 10 13 17 18 17 11 14 10 10 11 11 12 12 12 13 14 14 16 11 12 13 13 13 15 13 11 10 10
9 6 6 7 6 6 6 6 6 6 7 6 10 10 8 7 10 12 16 10 10 11 11 11 11 11 12 12 13 13 14 14 15 13 13 13 13 13 13 12 11 12 11
6 7 6 6 7 6 6 6 6 6 6 6 7 8 10 7 7 5 10 10 10 10 10 10 11 11 12 12 13 13 15 14 15 14 14 13 13 13 14 13 13 15 13
9 9 7 5 5 5 6 6 6 6 6 7 8 11 10 8 10 10 10 10 10 9 10 11 11 11 12 13 13 14 14 15 16 14 15 14 14 13 13 15 13 13 12
7 7 3 5 6 6 6 6 6 6 6 6 6 7 8 9 9 9 10 9 10 10 10 11 11 11 12 13 14 14 15 15 16 15 14 15 15 14 15 14 14 13 11
6 6 6 6 6 6 6 5 6 6 7 7 6 5 6 7 9 9 10 10 10 10 9 10 10 11 12 13 14 15 16 17 17 16 15 15 14 15 16 15 14 13 15
6 6 6 5 5 2 4 5 6 6 6 6 7 7 8 8 8 9 9 9 10 10 10 10 10 11 12 12 13 15 16 17 16 15 17 15 14 16 15 15 15 15 14
6 6 5 6 6 5 5 5 5 3 6 7 7 7 8 8 8 9 9 9 10 10 10 10 10 15 14 13 13 15 14 16 15 16 21 15 14 18 15 15 15 18 13
6 6 6 6 6 6 5 6 6 6 6 7 7 7 8 8 8 9 9 9 10 10 11 11 10 15 16 18 20 24 21 20 21 22 16 18 18 19 17 14 17 15 17
6 6 5 5 5 6 6 6 6 7 7 7 7 8 8 8 9 9 9 10 10 10 13 10 12 17 18 14 20 20 20 22 22 25 20 15 16 15 14 17 22 14 16
Wind_Direction
108 104 101 108 113 140 144 134 139 130 130 157 134 123 43 346 331 312 307 283 301 302 306 304 308 304 298 309 306 303 296 300 298 293 296 297 296 292 292 296 298 288 282
110 110 109 107 118 126 135 138 135 132 161 170 165 13 336 329 314 310 310 324 318 321 325 307 311 319 308 294 288 295 297 291 286 288 287 284 278 289 289 288 286 289 284
107 110 108 111 117 131 133 134 151 168 177 186 352 338 340 325 320 322 327 329 328 318 309 315 313 311 304 309 307 302 296 292 292 288 285 281 277 278 282 281 285 285 280
102 101 99 105 116 121 126 131 142 166 5 349 345 330 329 318 318 349 336 331 323 316 315 310 307 303 304 316 306 303 307 309 295 286 284 285 280 280 271 276 281 286 298
96 97 99 106 110 114 111 110 98 28 344 328 327 317 338 314 31 353 337 329 321 315 311 308 308 335 296 296 310 307 310 302 298 294 287 287 286 289 284 282 278 287 284
89 91 92 92 94 75 53 16 355 351 342 317 319 326 325 28 38 14 342 324 311 308 314 319 327 303 353 320 306 308 289 283 284 284 287 287 290 299 294 288 284 278 285
87 88 82 80 68 50 43 41 22 360 314 336 357 358 342 99 39 6 338 310 303 311 313 327 325 338 327 336 312 305 291 269 244 272 288 301 301 301 298 290 285 270 264
78 75 67 63 65 60 47 43 17 11 6 20 13 350 324 75 42 8 339 304 306 316 331 330 321 323 6 340 322 315 322 321 329 322 311 303 300 297 293 288 288 286 274
81 74 67 66 63 52 49 41 27 4 347 344 10 344 4 56 36 11 344 322 340 334 329 320 312 355 357 333 321 331 331 327 332 321 304 283 283 273 264 278 270 269 263
76 76 71 63 55 52 34 33 20 0 36 358 356 12 51 9 44 10 356 334 342 336 327 332 85 21 344 322 340 346 336 339 330 329 333 330 329 313 300 268 253 264 256
71 71 65 69 63 46 43 34 30 32 32 16 2 16 33 41 26 10 357 350 349 324 336 339 347 8 325 319 323 -0 335 316 331 339 330 329 334 332 328 317 276 240 258
78 81 78 66 51 62 56 53 54 45 41 28 12 341 27 26 42 6 351 345 345 334 346 347 348 341 325 320 334 334 314 317 352 344 339 336 332 327 323 313 303 257 236
82 80 79 69 73 70 52 37 36 27 7 18 17 26 13 14 14 360 347 342 350 341 345 331 324 330 323 343 336 328 351 0 356 347 337 333 329 322 318 312 319 302 247
86 81 79 58 58 45 42 52 37 20 9 21 11 7 8 8 14 353 344 347 347 342 338 312 325 326 353 322 316 350 4 8 360 339 335 326 322 323 321 325 319 316 297
88 80 67 74 46 88 67 28 46 52 32 9 9 0 8 7 7 344 343 351 348 330 311 351 356 357 359 0 347 354 355 356 360 346 333 329 326 324 322 322 312 310 297
85 65 29 49 52 42 31 116 83 100 91 79 54 26 25 36 355 350 344 330 309 319 3 4 4 4 3 358 355 353 355 355 357 338 332 328 327 327 322 319 316 310 306
67 55 83 45 47 38 32 23 33 138 126 104 93 59 31 5 348 345 337 322 270 329 19 16 12 6 2 358 356 355 354 351 346 342 334 331 326 323 326 322 321 315 310
91 24 56 44 39 37 40 36 34 26 18 36 95 53 18 337 331 327 328 340 22 23 17 11 7 2 0 358 354 354 351 347 345 345 337 330 327 326 325 321 317 312 308
64 58 54 59 48 23 44 44 39 36 30 24 22 22 12 330 318 327 349 21 19 17 13 7 6 1 359 357 352 354 348 348 344 349 336 331 330 328 322 317 311 305 293
82 33 22 57 62 55 47 43 38 27 23 22 32 15 4 355 15 17 20 14 14 14 9 2 3 359 358 356 353 353 348 349 349 349 335 332 330 327 323 322 317 310 305
83 84 348 65 58 49 46 42 33 27 21 14 21 48 319 328 12 15 16 12 10 6 6 359 359 359 359 356 355 352 349 352 350 343 333 334 329 331 331 325 321 317 304
76 70 62 60 53 43 33 35 31 23 17 13 13 39 284 9 12 12 12 7 5 2 4 359 357 0 1 356 357 353 349 353 348 337 335 332 330 334 332 330 328 330 330
78 80 77 70 69 62 54 43 31 18 15 16 11 9 8 9 8 11 7 4 358 356 -0 360 357 1 1 355 1 356 355 355 340 334 333 327 335 337 336 335 337 339 342
76 71 71 71 31 43 23 36 37 69 0 14 12 9 6 4 2 5 2 360 357 355 359 355 355 358 354 353 5 355 1 350 334 343 333 328 339 339 338 338 343 339 338
58 56 53 44 32 25 42 27 23 15 11 9 8 5 3 0 1 -0 360 356 354 353 354 351 353 350 353 352 9 351 351 345 338 334 335 333 344 347 345 339 343 340 345
76 62 55 40 33 28 17 11 12 11 2 3 2 2 358 358 1 352 358 354 349 348 349 349 348 350 346 358 6 344 346 344 342 334 326 347 350 348 351 342 344 344 342